Time,TemperatureF,DewpointF,PressureIn,WindDirection,WindDirectionDegrees,WindSpeedMPH,WindSpeedGustMPH,Humidity,HourlyPrecipIn,Conditions,Clouds,dailyrainin,SoftwareType,DateUTC
2013-03-13 00:07:00,46.3,39.0,30.11,North,350,0.0,0.0,75,0.00,,,0.00,weatherlink.com 1.10,2013-03-13 05:07:00,
2013-03-13 00:22:00,45.7,38.0,30.11,North,350,0.0,0.0,75,0.00,,,0.00,weatherlink.com 1.10,2013-03-13 05:22:00,
2013-03-13 00:37:00,45.7,39.0,30.11,North,350,0.0,0.0,77,0.00,,,0.00,weatherlink.com 1.10,2013-03-13 05:37:00,
2013-03-13 00:52:00,45.2,39.0,30.11,North,350,0.0,0.0,78,0.00,,,0.00,weatherlink.com 1.10,2013-03-13 05:52:00,
2013-03-13 01:07:00,44.7,39.0,30.12,North,350,0.0,0.0,80,0.00,,,0.00,weatherlink.com 1.10,2013-03-13 06:07:00,
2013-03-13 01:22:00,44.1,38.0,30.12,North,350,0.0,0.0,80,0.00,,,0.00,weatherlink.com 1.10,2013-03-13 06:22:00,
2013-03-13 01:36:00,44.3,38.0,30.12,North,350,0.0,2.0,79,0.00,,,0.00,weatherlink.com 1.10,2013-03-13 06:36:00,
2013-03-13 01:51:00,44.4,38.0,30.11,North,350,0.0,1.0,78,0.00,,,0.00,weatherlink.com 1.10,2013-03-13 06:51:00,
2013-03-13 02:06:00,44.4,38.0,30.11,North,350,0.0,2.0,78,0.00,,,0.00,weatherlink.com 1.10,2013-03-13 07:06:00,
2013-03-13 02:21:00,44.2,37.0,30.11,North,350,0.0,0.0,77,0.00,,,0.00,weatherlink.com 1.10,2013-03-13 07:21:00,
2013-03-13 02:37:00,43.8,37.0,30.11,North,350,0.0,0.0,78,0.00,,,0.00,weatherlink.com 1.10,2013-03-13 07:37:00,
2013-03-13 02:52:00,43.2,37.0,30.12,North,350,0.0,1.0,80,0.00,,,0.00,weatherlink.com 1.10,2013-03-13 07:52:00,
2013-03-13 03:22:00,42.2,37.0,30.12,North,350,0.0,1.0,82,0.00,,,0.00,weatherlink.com 1.10,2013-03-13 08:22:00,
2013-03-13 03:37:00,42.1,37.0,30.12,North,350,0.0,1.0,83,0.00,,,0.00,weatherlink.com 1.10,2013-03-13 08:37:00,
2013-03-13 03:52:00,41.6,37.0,30.13,North,350,0.0,0.0,83,0.00,,,0.00,weatherlink.com 1.10,2013-03-13 08:52:00,
2013-03-13 04:07:00,41.3,37.0,30.13,North,350,0.0,0.0,84,0.00,,,0.00,weatherlink.com 1.10,2013-03-13 09:07:00,
2013-03-13 04:22:00,41.3,37.0,30.13,North,350,0.0,3.0,84,0.00,,,0.00,weatherlink.com 1.10,2013-03-13 09:22:00,
2013-03-13 04:37:00,41.7,37.0,30.14,North,350,0.0,2.0,82,0.00,,,0.00,weatherlink.com 1.10,2013-03-13 09:37:00,
2013-03-13 04:52:00,41.9,37.0,30.14,North,350,0.0,2.0,82,0.00,,,0.00,weatherlink.com 1.10,2013-03-13 09:52:00,
2013-03-13 05:07:00,41.9,37.0,30.14,North,350,1.0,2.0,81,0.00,,,0.00,weatherlink.com 1.10,2013-03-13 10:07:00,
2013-03-13 05:22:00,41.9,37.0,30.15,North,350,2.0,3.0,81,0.00,,,0.00,weatherlink.com 1.10,2013-03-13 10:22:00,
2013-03-13 05:37:00,41.9,37.0,30.15,North,350,0.0,3.0,81,0.00,,,0.00,weatherlink.com 1.10,2013-03-13 10:37:00,
2013-03-13 05:52:00,42.0,37.0,30.16,North,350,0.0,3.0,81,0.00,,,0.00,weatherlink.com 1.10,2013-03-13 10:52:00,
2013-03-13 06:07:00,41.8,36.0,30.16,North,350,0.0,4.0,81,0.00,,,0.00,weatherlink.com 1.10,2013-03-13 11:07:00,
2013-03-13 06:22:00,41.7,36.0,30.17,North,350,0.0,3.0,81,0.00,,,0.00,weatherlink.com 1.10,2013-03-13 11:22:00,
2013-03-13 06:37:00,41.3,36.0,30.17,North,350,0.0,2.0,81,0.00,,,0.00,weatherlink.com 1.10,2013-03-13 11:37:00,
2013-03-13 06:52:00,40.8,36.0,30.18,North,350,0.0,1.0,83,0.00,,,0.00,weatherlink.com 1.10,2013-03-13 11:52:00,
2013-03-13 07:07:00,40.5,36.0,30.19,North,350,2.0,2.0,84,0.00,,,0.00,weatherlink.com 1.10,2013-03-13 12:07:00,
2013-03-13 07:22:00,40.7,36.0,30.19,North,350,1.0,3.0,84,0.00,,,0.00,weatherlink.com 1.10,2013-03-13 12:22:00,
2013-03-13 07:37:00,41.3,37.0,30.20,North,350,0.0,3.0,83,0.00,,,0.00,weatherlink.com 1.10,2013-03-13 12:37:00,
2013-03-13 07:52:00,42.0,37.0,30.20,North,350,0.0,2.0,81,0.00,,,0.00,weatherlink.com 1.10,2013-03-13 12:52:00,
2013-03-13 08:07:00,43.1,37.0,30.21,North,350,0.0,3.0,80,0.00,,,0.00,weatherlink.com 1.10,2013-03-13 13:07:00,
2013-03-13 08:23:00,45.0,38.0,30.22,NNW,346,1.0,4.0,77,0.00,,,0.00,weatherlink.com 1.10,2013-03-13 13:23:00,
2013-03-13 08:38:00,46.9,39.0,30.22,NNW,340,1.0,3.0,74,0.00,,,0.00,weatherlink.com 1.10,2013-03-13 13:38:00,
2013-03-13 08:53:00,49.0,40.0,30.22,NNW,348,0.0,6.0,70,0.00,,,0.00,weatherlink.com 1.10,2013-03-13 13:53:00,
2013-03-13 09:08:00,51.0,40.0,30.23,NNW,346,3.0,3.0,67,0.00,,,0.00,weatherlink.com 1.10,2013-03-13 14:08:00,
2013-03-13 09:23:00,53.2,40.0,30.23,North,5,0.0,7.0,62,0.00,,,0.00,weatherlink.com 1.10,2013-03-13 14:23:00,
2013-03-13 09:38:00,55.4,38.0,30.23,NNW,339,1.0,6.0,53,0.00,,,0.00,weatherlink.com 1.10,2013-03-13 14:38:00,
2013-03-13 09:53:00,57.3,38.0,30.23,NNW,329,2.0,8.0,48,0.00,,,0.00,weatherlink.com 1.10,2013-03-13 14:53:00,
2013-03-13 10:08:00,58.7,38.0,30.23,North,355,4.0,8.0,47,0.00,,,0.00,weatherlink.com 1.10,2013-03-13 15:08:00,
2013-03-13 10:23:00,59.7,39.0,30.23,NNW,346,2.0,6.0,47,0.00,,,0.00,weatherlink.com 1.10,2013-03-13 15:23:00,
2013-03-13 10:38:00,61.3,39.0,30.23,NNW,348,1.0,6.0,44,0.00,,,0.00,weatherlink.com 1.10,2013-03-13 15:38:00,
2013-03-13 10:53:00,62.4,38.0,30.23,NNW,340,3.0,11.0,41,0.00,,,0.00,weatherlink.com 1.10,2013-03-13 15:53:00,
2013-03-13 11:08:00,62.9,38.0,30.23,NNW,338,2.0,10.0,40,0.00,,,0.00,weatherlink.com 1.10,2013-03-13 16:08:00,
2013-03-13 11:23:00,63.6,38.0,30.23,NNE,27,8.0,9.0,39,0.00,,,0.00,weatherlink.com 1.10,2013-03-13 16:23:00,
2013-03-13 11:38:00,63.9,38.0,30.23,North,350,3.0,9.0,38,0.00,,,0.00,weatherlink.com 1.10,2013-03-13 16:38:00,
2013-03-13 11:53:00,64.7,38.0,30.22,NNE,23,3.0,8.0,38,0.00,,,0.00,weatherlink.com 1.10,2013-03-13 16:53:00,
2013-03-13 12:08:00,65.1,37.0,30.21,North,5,6.0,8.0,36,0.00,,,0.00,weatherlink.com 1.10,2013-03-13 17:08:00,
2013-03-13 12:23:00,64.9,36.0,30.21,NNE,28,6.0,7.0,35,0.00,,,0.00,weatherlink.com 1.10,2013-03-13 17:23:00,
2013-03-13 12:38:00,65.8,38.0,30.20,North,5,2.0,7.0,36,0.00,,,0.00,weatherlink.com 1.10,2013-03-13 17:38:00,
2013-03-13 12:53:00,66.6,39.0,30.19,NW,320,1.0,8.0,37,0.00,,,0.00,weatherlink.com 1.10,2013-03-13 17:53:00,
2013-03-13 13:08:00,67.0,40.0,30.18,NNW,336,3.0,8.0,37,0.00,,,0.00,weatherlink.com 1.10,2013-03-13 18:08:00,
2013-03-13 13:23:00,66.6,38.0,30.18,North,5,6.0,9.0,35,0.00,,,0.00,weatherlink.com 1.10,2013-03-13 18:23:00,
2013-03-13 13:38:00,66.6,39.0,30.17,NW,313,3.0,10.0,36,0.00,,,0.00,weatherlink.com 1.10,2013-03-13 18:38:00,
2013-03-13 13:53:00,67.0,37.0,30.16,NNW,338,6.0,10.0,33,0.00,,,0.00,weatherlink.com 1.10,2013-03-13 18:53:00,
2013-03-13 14:08:00,66.9,35.0,30.15,NNW,342,8.0,15.0,31,0.00,,,0.00,weatherlink.com 1.10,2013-03-13 19:08:00,
2013-03-13 14:23:00,67.7,34.0,30.15,North,350,10.0,12.0,29,0.00,,,0.00,weatherlink.com 1.10,2013-03-13 19:23:00,
2013-03-13 14:38:00,67.6,35.0,30.14,NW,319,3.0,9.0,30,0.00,,,0.00,weatherlink.com 1.10,2013-03-13 19:38:00,
2013-03-13 14:53:00,67.4,34.0,30.14,North,349,3.0,8.0,29,0.00,,,0.00,weatherlink.com 1.10,2013-03-13 19:53:00,
2013-03-13 15:08:00,67.2,34.0,30.14,NNW,330,4.0,14.0,29,0.00,,,0.00,weatherlink.com 1.10,2013-03-13 20:08:00,
2013-03-13 15:23:00,67.4,32.0,30.13,NNE,31,6.0,11.0,27,0.00,,,0.00,weatherlink.com 1.10,2013-03-13 20:23:00,
2013-03-13 15:37:00,67.5,34.0,30.13,NW,318,4.0,11.0,29,0.00,,,0.00,weatherlink.com 1.10,2013-03-13 20:37:00,
2013-03-13 15:52:00,67.4,32.0,30.13,North,351,4.0,14.0,27,0.00,,,0.00,weatherlink.com 1.10,2013-03-13 20:52:00,
2013-03-13 16:08:00,67.1,32.0,30.13,NNE,17,4.0,10.0,27,0.00,,,0.00,weatherlink.com 1.10,2013-03-13 21:08:00,
2013-03-13 16:22:00,66.7,29.0,30.13,NW,318,4.0,13.0,24,0.00,,,0.00,weatherlink.com 1.10,2013-03-13 21:22:00,
2013-03-13 16:38:00,66.8,29.0,30.14,West,262,3.0,10.0,24,0.00,,,0.00,weatherlink.com 1.10,2013-03-13 21:38:00,
2013-03-13 16:53:00,66.3,28.0,30.13,NNW,343,2.0,13.0,24,0.00,,,0.00,weatherlink.com 1.10,2013-03-13 21:53:00,
2013-03-13 17:08:00,66.2,28.0,30.14,NNW,342,3.0,9.0,24,0.00,,,0.00,weatherlink.com 1.10,2013-03-13 22:08:00,
2013-03-13 17:23:00,65.8,27.0,30.14,NNE,24,2.0,14.0,23,0.00,,,0.00,weatherlink.com 1.10,2013-03-13 22:23:00,
2013-03-13 17:37:00,64.3,27.0,30.14,NW,322,2.0,16.0,24,0.00,,,0.00,weatherlink.com 1.10,2013-03-13 22:37:00,
2013-03-13 17:52:00,63.6,26.0,30.15,NW,306,3.0,8.0,24,0.00,,,0.00,weatherlink.com 1.10,2013-03-13 22:52:00,
2013-03-13 18:07:00,62.8,27.0,30.15,North,355,3.0,8.0,26,0.00,,,0.00,weatherlink.com 1.10,2013-03-13 23:07:00,
2013-03-13 18:23:00,62.2,28.0,30.16,NW,317,3.0,9.0,27,0.00,,,0.00,weatherlink.com 1.10,2013-03-13 23:23:00,
2013-03-13 18:38:00,61.2,28.0,30.16,NW,321,1.0,8.0,28,0.00,,,0.00,weatherlink.com 1.10,2013-03-13 23:38:00,
2013-03-13 18:53:00,60.2,26.0,30.17,North,355,3.0,7.0,27,0.00,,,0.00,weatherlink.com 1.10,2013-03-13 23:53:00,
2013-03-13 19:08:00,59.1,26.0,30.17,NNW,334,2.0,5.0,28,0.00,,,0.00,weatherlink.com 1.10,2013-03-14 00:08:00,
2013-03-13 19:23:00,58.0,25.0,30.18,North,355,1.0,2.0,28,0.00,,,0.00,weatherlink.com 1.10,2013-03-14 00:23:00,
2013-03-13 19:38:00,57.1,26.0,30.19,North,11,0.0,3.0,30,0.00,,,0.00,weatherlink.com 1.10,2013-03-14 00:38:00,
2013-03-13 19:53:00,56.3,26.0,30.19,North,355,0.0,4.0,31,0.00,,,0.00,weatherlink.com 1.10,2013-03-14 00:53:00,
2013-03-13 20:08:00,55.7,25.0,30.19,North,355,1.0,6.0,30,0.00,,,0.00,weatherlink.com 1.10,2013-03-14 01:08:00,
2013-03-13 20:23:00,55.1,24.0,30.20,NNW,345,1.0,4.0,30,0.00,,,0.00,weatherlink.com 1.10,2013-03-14 01:23:00,
2013-03-13 20:39:00,54.4,24.0,30.20,NNE,17,0.0,3.0,31,0.00,,,0.00,weatherlink.com 1.10,2013-03-14 01:39:00,
2013-03-13 20:54:00,53.1,24.0,30.20,NNE,17,0.0,1.0,32,0.00,,,0.00,weatherlink.com 1.10,2013-03-14 01:54:00,
2013-03-13 21:09:00,51.2,27.0,30.21,NNE,17,0.0,0.0,39,0.00,,,0.00,weatherlink.com 1.10,2013-03-14 02:09:00,
2013-03-13 21:24:00,49.6,27.0,30.22,NNE,17,0.0,0.0,42,0.00,,,0.00,weatherlink.com 1.10,2013-03-14 02:24:00,
2013-03-13 21:39:00,48.9,27.0,30.22,NNE,17,0.0,2.0,43,0.00,,,0.00,weatherlink.com 1.10,2013-03-14 02:39:00,
2013-03-13 21:54:00,50.2,26.0,30.23,North,355,1.0,4.0,39,0.00,,,0.00,weatherlink.com 1.10,2013-03-14 02:54:00,
2013-03-13 22:09:00,50.7,26.0,30.23,North,5,3.0,4.0,38,0.00,,,0.00,weatherlink.com 1.10,2013-03-14 03:09:00,
2013-03-13 22:39:00,49.8,26.0,30.25,NNW,347,0.0,3.0,40,0.00,,,0.00,weatherlink.com 1.10,2013-03-14 03:39:00,
2013-03-13 22:54:00,48.4,28.0,30.26,NNW,347,0.0,1.0,45,0.00,,,0.00,weatherlink.com 1.10,2013-03-14 03:54:00,
2013-03-13 23:09:00,46.6,29.0,30.26,NNW,347,0.0,0.0,51,0.00,,,0.00,weatherlink.com 1.10,2013-03-14 04:09:00,
2013-03-13 23:24:00,45.2,31.0,30.26,NNW,347,0.0,0.0,58,0.00,,,0.00,weatherlink.com 1.10,2013-03-14 04:24:00,
2013-03-13 23:39:00,44.3,31.0,30.26,NNW,347,0.0,1.0,59,0.00,,,0.00,weatherlink.com 1.10,2013-03-14 04:39:00,
2013-03-13 23:54:00,43.7,30.0,30.26,NNW,347,0.0,0.0,60,0.00,,,0.00,weatherlink.com 1.10,2013-03-14 04:54:00,